• Join FlightAware (Why Join?)
  • Login
  • US Flag GB Flag 
04:10 EDT


 

Airport Tracker/Info


-or-


 

Live Flight TrackerFlight Track Log ✈ ASQ5685 ✈ 04-Oct-2013 ✈ KATL - KIAD

Flight Track Log - Related Links

Times and Time Zones

All times are in EDT time to prevent confusion due to time zone crossing. See the ASQ5685 flight status page for this flight to view local times or setup timezone preferences in your user account.

Time Position Orientation Groundspeed Altitude Reporting Facility
EDT Latitude Longitude Course Direction KTS MPH feet Rate Location/Type
09:46 33.6353 -84.3731 69° East 409 471 2,400  Level Atlanta Center
09:47 33.6333 -84.3167 92° East 254 292 3,300 1,980 Climbing Atlanta TRACON
09:48 33.6333 -84.2167 90° East 278 320 6,100 2,400 Climbing Atlanta TRACON
09:49 33.9518 -84.0529 53° Northeast  Level Estimated
09:49 33.6333 -84.1333 90° East 281 323 8,100  Level Atlanta TRACON
09:50 33.9924 -83.9286 68° East  Level FlightAware Approximate
09:50 33.6878 -84.0314 57° Northeast 307 353 10,500  Level Atlanta Center
09:51 34.0329 -83.8042 69° East  Level FlightAware Approximate
09:51 33.7483 -83.9514 48° Northeast 307 353 11,700  Level Atlanta Center
09:52 33.8067 -83.8789 46° Northeast 322 371 12,700 1,140 Climbing Atlanta Center
09:53 33.8753 -83.7886 48° Northeast 343 395 14,000 1,260 Climbing Atlanta Center
09:54 33.9442 -83.6933 49° Northeast 360 414 15,300 1,200 Climbing Atlanta Center
09:55 34.0083 -83.5903 53° Northeast 371 427 16,400 1,020 Climbing Atlanta Center
09:56 34.0747 -83.4869 52° Northeast 386 444 17,400 900 Climbing Atlanta Center
09:57 34.1411 -83.3836 52° Northeast 386 444 18,200 900 Climbing Atlanta Center
09:58 34.2050 -83.2753 54° Northeast 391 450 19,300 900 Climbing Atlanta Center
09:59 34.2753 -83.1689 51° Northeast 391 450 20,100 660 Climbing Atlanta Center
10:00 34.3475 -83.0525 53° Northeast 391 450 20,700 600 Climbing Atlanta Center
10:01 34.4156 -82.9408 54° Northeast 391 450 21,300 600 Climbing Atlanta Center
10:02 34.4792 -82.8317 55° Northeast 396 456 21,900 600 Climbing Atlanta Center
10:03 34.5489 -82.7222 52° Northeast 396 456 22,500 600 Climbing Atlanta Center
10:04 34.6186 -82.6153 52° Northeast 396 456 23,100 600 Climbing Atlanta Center
10:05 34.6822 -82.5106 54° Northeast 396 456 23,700 600 Climbing Atlanta Center
10:06 34.7494 -82.3981 54° Northeast 391 450 24,300 600 Climbing Atlanta Center
10:07 34.8128 -82.2906 54° Northeast 391 450 24,900 540 Climbing Atlanta Center
10:08 34.8800 -82.1828 53° Northeast 391 450 25,400 3,000 Climbing Atlanta Center
10:09 34.9433 -82.0878 51° Northeast 391 450 31,000 480 Climbing Atlanta Center
10:10 35.0103 -81.9797 53° Northeast 391 450 26,400 -2,040 Descending Atlanta Center
10:11 35.0708 -81.8614 58° Northeast 391 450 27,000 540 Climbing Atlanta Center
10:12 35.1314 -81.7456 57° Northeast 402 463 27,500 480 Climbing Atlanta Center
10:13 35.1919 -81.6319 57° Northeast 402 463 28,000 480 Climbing Atlanta Center
10:14 35.2542 -81.5131 57° Northeast 402 463 28,500 480 Climbing Atlanta Center
10:15 35.3203 -81.3864 57° Northeast 402 463 29,000 480 Climbing Atlanta Center
10:16 35.3781 -81.2675 59° Northeast 402 463 29,500 480 Climbing Atlanta Center
10:17 35.4400 -81.1481 57° Northeast 402 463 30,000 480 Climbing Atlanta Center
10:18 35.4958 -81.0389 58° Northeast 412 474 30,500 480 Climbing Atlanta Center
10:19 35.5578 -80.9219 57° Northeast 412 474 31,000 240 Climbing Atlanta Center
10:20 35.6253 -80.7967 56° Northeast 412 474 31,000  Level Atlanta Center
10:21 35.6889 -80.6739 57° Northeast 412 474 31,000  Level Atlanta Center
10:22 35.7522 -80.5511 58° Northeast 420 483 31,000  Level Atlanta Center
10:23 35.8172 -80.4253 57° Northeast 420 483 31,000  Level Atlanta Center
10:25 35.9431 -80.1717 58° Northeast 428 493 31,000  Level Washington Center
10:26 36.0036 -80.0647 55° Northeast 428 493 31,000  Level Washington Center
10:27 36.0686 -79.9425 57° Northeast 423 487 31,000  Level Washington Center
10:28 36.1400 -79.8178 55° Northeast 428 493 31,000 -780 Level Washington Center
10:29 36.2200 -79.6753 55° Northeast 451 519 29,500 -1,680 Descending Washington Center
10:30 36.2956 -79.5400 55° Northeast 470 541 27,700 -1,860 Descending Washington Center
10:31 36.3619 -79.4222 55° Northeast 475 547 25,800 -1,380 Descending Washington Center
10:32 36.4350 -79.2889 56° Northeast 475 547 25,000 -420 Descending Washington Center
10:33 36.5117 -79.1686 52° Northeast 470 541 25,000 -540 Level Washington Center
10:34 36.6244 -79.0908 29° Northeast 444 511 24,000 -540 Descending Washington Center
10:35 36.7431 -79.0314 22° Northeast 444 511 24,000  Level Washington Center
10:36 36.8367 -78.8931 50° Northeast 449 517 24,000  Level Washington Center
10:37 36.9192 -78.7717 50° Northeast 454 522 24,000  Level Washington Center
10:38 36.9975 -78.6475 52° Northeast 460 529 24,000  Level Washington Center
10:39 37.0733 -78.5361 50° Northeast 460 529 24,000  Level Washington Center
10:40 37.1556 -78.4089 51° Northeast 460 529 24,000  Level Washington Center
10:41 37.2378 -78.2842 50° Northeast 460 529 24,000  Level Washington Center
10:42 37.3178 -78.1614 51° Northeast 460 529 24,000 -480 Level Washington Center
10:43 37.3911 -78.0439 52° Northeast 448 516 23,100 -1,020 Descending Washington Center
10:44 37.4622 -77.9283 52° Northeast 435 501 22,000 -600 Descending Washington Center
10:45 37.5414 -77.8208 47° Northeast 425 489 22,000 -360 Level Washington Center
10:46 37.6617 -77.7508 25° Northeast 416 479 21,300 -1,320 Descending Washington Center
10:47 37.7544 -77.6983 24° Northeast 416 479 19,400 -1,980 Descending Washington Center
10:48 37.8514 -77.6378 26° Northeast 399 459 17,400 -2,100 Descending Washington Center
10:49 37.9481 -77.5825 24° Northeast 382 440 15,200 -2,160 Descending Washington Center
10:50 38.0428 -77.5322 23° Northeast 377 434 13,200 -2,040 Descending Washington Center
10:51 38.1314 -77.4767 26° Northeast 361 415 11,200 -1,620 Descending Washington Center
10:52 38.2072 -77.4336 24° Northeast 328 377 10,000 -1,200 Descending Washington Center
10:53 38.2842 -77.4381 357° North 280 322 8,800 -1,440 Descending Washington Center
10:54 38.3589 -77.4531 351° North 267 307 7,200 -1,620 Descending Washington Center
10:55 38.4297 -77.4681 351° North 267 307 5,700 -1,140 Descending Washington Center
10:56 38.5047 -77.4700 359° North 262 302 5,000 -360 Descending Washington Center
10:57 38.5756 -77.4692 North 257 296 5,000 -300 Level Washington Center
10:58 38.6500 -77.4667 North 259 298 4,500 -720 Descending Potomac TRACON
10:59 38.7167 -77.4667 360° North 254 292 3,700 -780 Descending Potomac TRACON
11:00 38.8000 -77.4667 360° North 252 290 3,000 -900 Descending Potomac TRACON
11:01 38.8500 -77.4667 360° North 215 247 1,900 -960 Descending Potomac TRACON
11:02 38.9000 -77.4667 360° North 153 176 1,200 -780 Descending Potomac TRACON